Weather History for KLBB - October, 2013

Change the Weather History Date:

Thursday, October 10, 2013

  Actual Average Record
Temperature  
Mean Temperature 69 °F 64 °F  
Max Temperature 85 °F 77 °F 93 °F (1965)
Min Temperature 53 °F 50 °F 37 °F (2009)
Degree Days  
Heating Degree Days 0 4  
Month to date heating degree days 17 30  
Since 1 July heating degree days 21 53  
Cooling Degree Days 4 2  
Month to date cooling degree days 61 29  
Year to date cooling degree days 2105 1778  
Growing Degree Days 18 (Base 50)    
Moisture  
Dew Point 50 °F    
Average Humidity 57    
Maximum Humidity 83    
Minimum Humidity 31    
Precipitation  
Precipitation 0.00 in 0.07 in 1.18 in (1919)
Month to date precipitation 0.00 0.68  
Year to date precipitation 10.32 16.26  
Snow  
Snow 0.00 in 0.00 in 0.00 in (2002)
Month to date snowfall 0.0 0.0  
Since 1 July snowfall 0.0 0.0  
Since 1 September snowfall 0.0 0.0  
Snow Depth 0.00 in    
Sea Level Pressure  
Sea Level Pressure 29.77 in    
Wind  
Wind Speed 16 mph (SSE)    
Max Wind Speed 29 mph    
Max Gust Speed 40 mph    
Visibility 10 miles    
Events      
T = Trace of Precipitation, MM = Missing Value Source: NWS Daily Summary

Daily Weather History Graph

Daily Weather History Graph

Search for Another Location

Airport or City:

Trip Planner

Search our weather history database for the weather conditions in past years. The results will help you decide how hot, cold, wet, or windy it might be!

Date:

Astronomy

Oct. 10, 2013 Rise Set
Actual Time 7:48 AM CDT 7:19 PM CDT
Civil Twilight 7:23 AM CDT 7:44 PM CDT
Nautical Twilight 6:54 AM CDT 8:13 PM CDT
Astronomical Twilight 6:25 AM CDT 8:42 PM CDT
Moon 1:31 PM CDT (10/10) No Moon Set
Length of Visible Light 12h 20m
Length of Day
11h 30m
Waxing Crescent, 36% of the Moon is Illuminated
Oct 10
Waxing Crescent
Oct 11
First Quarter
Oct 18
Full
Oct 26
Last Quarter
Nov 3
New

Hourly Weather History & Observations

Time (CDT) Temp. Heat Index Dew Point Humidity Pressure Visibility Wind Dir Wind Speed Gust Speed Precip Events Conditions
12:53 AM 64.9 °F - 48.9 °F 56% 29.84 in 10.0 mi SSE 12.7 mph - N/A   Clear
1:53 AM 64.0 °F - 50.0 °F 60% 29.84 in 10.0 mi SSE 11.5 mph - N/A   Clear
2:53 AM 60.1 °F - 50.0 °F 69% 29.86 in 10.0 mi SE 6.9 mph - N/A   Clear
3:53 AM 55.9 °F - 48.9 °F 77% 29.85 in 10.0 mi SE 6.9 mph - N/A   Clear
4:53 AM 57.0 °F - 50.0 °F 77% 29.84 in 10.0 mi SE 9.2 mph - N/A   Clear
5:53 AM 54.0 °F - 48.0 °F 80% 29.84 in 10.0 mi SE 8.1 mph - N/A   Clear
6:53 AM 55.9 °F - 48.9 °F 77% 29.84 in 10.0 mi SE 9.2 mph - N/A   Clear
7:53 AM 55.0 °F - 48.9 °F 80% 29.85 in 10.0 mi SSE 6.9 mph - N/A   Partly Cloudy
8:53 AM 59.0 °F - 50.0 °F 72% 29.86 in 10.0 mi SSE 11.5 mph - N/A   Partly Cloudy
9:53 AM 64.0 °F - 51.1 °F 63% 29.86 in 10.0 mi South 17.3 mph - N/A   Clear
10:53 AM 69.1 °F - 53.1 °F 57% 29.84 in 10.0 mi South 16.1 mph 21.9 mph N/A   Clear
11:53 AM 75.0 °F - 53.1 °F 46% 29.82 in 10.0 mi South 17.3 mph - N/A   Clear
12:53 PM 78.1 °F - 53.1 °F 42% 29.80 in 10.0 mi South 19.6 mph - N/A   Clear
1:53 PM 80.1 °F 80.0 °F 54.0 °F 40% 29.75 in 10.0 mi South 20.7 mph - N/A   Clear
2:53 PM 82.0 °F 81.3 °F 54.0 °F 38% 29.71 in 10.0 mi South 23.0 mph 31.1 mph N/A   Clear
3:53 PM 82.9 °F 81.8 °F 53.1 °F 36% 29.69 in 10.0 mi South 20.7 mph 28.8 mph N/A   Partly Cloudy
4:53 PM 84.0 °F - 51.1 °F 32% 29.67 in 10.0 mi South 25.3 mph 32.2 mph N/A   Partly Cloudy
5:53 PM 84.0 °F - 50.0 °F 31% 29.65 in 10.0 mi South 24.2 mph 33.4 mph N/A   Partly Cloudy
6:53 PM 81.0 °F - 48.9 °F 33% 29.66 in 10.0 mi South 23.0 mph 31.1 mph N/A   Partly Cloudy
7:53 PM 79.0 °F - 48.0 °F 34% 29.67 in 10.0 mi South 21.9 mph 28.8 mph N/A   Partly Cloudy
8:53 PM 75.0 °F - 48.9 °F 40% 29.68 in 10.0 mi SSE 17.3 mph - N/A   Clear
9:53 PM 73.0 °F - 48.0 °F 41% 29.69 in 10.0 mi South 18.4 mph - N/A   Partly Cloudy
10:53 PM 71.1 °F - 48.9 °F 45% 29.70 in 10.0 mi South 19.6 mph - N/A   Clear
11:53 PM 70.0 °F - 52.0 °F 53% 29.70 in 10.0 mi South 16.1 mph - N/A   Partly Cloudy